RH
26 43 40 40 38 34 29 26 24 24 24 24 24 24 24 24 24 23 26 29 29 30 32 33 35 37 36 32 32 31 30 30 31 41 53 48 30 28 27 28 31 33 32
22 30 32 33 38 35 30 27 24 24 23 24 24 24 24 24 23 24 27 27 28 31 35 37 38 38 38 34 32 30 34 36 38 37 41 50 38 36 37 32 29 31 34
14 20 29 31 38 37 34 30 26 23 22 23 24 24 24 23 24 28 30 29 28 30 34 36 38 39 40 37 35 35 38 37 42 41 41 62 61 57 40 49 40 32 34
18 14 24 37 41 40 33 26 22 21 21 22 23 24 23 23 28 33 34 34 33 36 38 42 47 47 45 42 40 43 45 44 46 49 56 56 50 65 74 62 47 42 36
24 14 18 29 31 25 20 20 20 21 22 22 23 23 24 28 36 39 40 45 49 54 58 58 59 62 63 63 58 59 61 59 59 58 53 59 67 73 82 69 62 50 45
28 16 18 20 23 26 26 27 26 26 25 24 24 25 30 39 43 46 54 60 62 66 69 67 62 61 60 62 62 62 64 65 60 56 56 55 59 68 82 73 85 67 55
24 21 25 29 36 38 33 36 31 30 29 28 26 28 38 50 54 70 63 61 69 72 66 62 61 62 61 59 61 65 65 62 63 63 62 62 60 62 69 75 89 90 73
34 31 32 38 40 36 42 48 49 68 66 66 48 46 49 65 65 67 66 65 63 63 63 62 64 61 59 62 62 64 67 67 68 65 62 58 53 59 67 71 88 93 83
42 37 39 41 49 56 54 64 61 64 69 71 70 63 71 62 60 57 58 60 62 63 64 65 58 62 68 72 71 71 68 71 71 68 61 56 55 54 62 65 75 86 93
41 33 36 53 66 68 70 68 67 70 77 73 76 84 82 62 56 60 64 59 59 66 61 42 40 38 46 66 74 75 66 67 64 54 46 44 44 43 42 60 69 75 76
33 43 61 66 65 68 72 71 75 81 80 72 78 77 82 67 53 64 65 62 58 39 36 32 31 31 31 34 38 35 34 33 32 31 30 30 30 32 34 44 57 65 69
53 65 64 59 65 66 69 72 75 82 82 74 73 64 73 70 60 65 62 44 37 30 24 22 23 23 23 23 23 23 23 24 24 25 25 26 28 29 32 34 37 43 54
66 66 67 63 66 70 69 68 75 82 84 75 72 75 74 72 71 56 39 32 26 24 22 22 23 21 20 20 20 22 25 25 25 26 29 30 30 32 32 30 32 32 38
65 64 63 64 66 70 72 68 75 83 88 80 77 77 62 46 39 34 29 24 21 19 16 12 10 10 15 19 26 30 29 28 27 28 29 29 31 33 35 35 37 38 38
64 61 62 65 67 66 65 76 86 91 95 88 76 46 40 35 31 24 18 17 15 11 9 10 11 12 18 22 25 24 21 17 12 9 8 8 9 10 14 24 33 41 43
59 58 63 65 56 53 65 78 84 90 90 77 43 37 34 28 22 16 15 12 10 8 9 13 17 19 16 12 8 6 5 4 4 4 4 4 4 5 5 6 6 12 17
60 62 64 60 51 51 78 80 76 75 46 40 37 32 30 24 17 16 13 7 6 8 12 13 12 8 6 6 5 4 4 4 4 4 4 4 4 4 4 4 5 5 6
63 65 64 59 52 48 56 50 43 39 38 35 32 30 23 18 16 9 7 8 10 13 13 10 8 7 6 5 5 5 5 4 4 4 4 4 3 3 4 5 5 4 4
64 64 62 58 52 50 48 39 41 44 44 40 31 23 19 11 8 8 9 10 13 15 13 10 8 7 6 5 5 5 5 5 5 4 4 4 3 3 3 3 3 3 2
67 65 60 57 53 53 50 50 51 49 43 30 23 19 14 11 10 9 10 12 15 16 14 10 9 7 6 6 6 6 6 6 6 6 5 5 4 4 3 3 3 2 2
72 68 60 58 54 54 57 56 44 30 25 23 18 16 14 12 11 10 12 14 18 18 14 11 10 8 7 6 7 7 8 8 8 7 7 6 6 5 4 3 3 2 2
76 67 60 60 54 56 55 46 30 28 25 22 21 22 19 15 13 13 13 14 16 18 18 14 10 9 7 7 7 8 9 8 8 9 8 8 8 7 6 5 4 3 2
74 66 61 61 51 55 38 28 29 30 34 39 39 37 37 36 27 18 16 17 18 18 20 16 12 10 8 7 7 8 9 10 10 9 10 9 9 9 8 7 5 4 4
73 64 61 60 50 53 34 30 33 46 46 47 50 57 60 60 58 34 20 20 20 19 21 21 16 12 10 9 8 8 9 10 10 11 11 11 11 10 10 9 7 6 4
70 62 62 62 50 49 36 38 44 50 49 56 62 70 71 70 64 53 33 21 22 22 22 24 21 14 12 11 10 9 9 9 10 11 12 12 12 12 11 11 9 7 6
66 62 63 63 53 48 40 42 52 58 62 65 68 73 82 82 72 66 44 23 24 26 24 25 24 18 13 12 12 12 11 10 10 11 12 12 13 13 13 12 11 9 7
Wind_Speed
8 11 8 9 9 9 8 7 5 4 3 3 3 2 2 4 5 7 8 9 9 9 9 10 10 10 10 10 10 11 11 13 14 13 11 12 9 8 9 9 9 8 8
8 9 9 9 9 7 6 5 4 3 3 3 2 1 2 3 4 4 6 6 6 6 7 7 7 7 6 6 6 7 9 9 10 10 10 9 8 8 7 7 6 6 6
7 7 9 9 8 7 7 6 4 3 3 2 2 1 1 1 1 3 4 4 5 5 5 6 6 5 5 6 6 7 8 8 8 9 8 9 6 7 5 6 7 6 6
4 6 9 10 9 7 6 5 5 5 5 4 4 2 2 1 1 3 4 4 4 4 4 5 6 8 10 10 9 10 10 10 10 10 10 9 9 9 5 4 6 3 3
6 8 10 10 8 7 6 4 4 4 4 5 4 4 3 2 2 3 3 4 4 5 5 7 8 9 11 12 12 12 11 11 11 11 11 9 7 8 5 9 9 7 5
6 7 8 8 7 4 2 1 5 3 5 5 6 5 4 3 2 3 4 5 7 8 7 7 8 11 12 13 13 12 13 12 12 11 13 12 10 11 14 15 11 9 8
4 7 8 6 3 1 2 2 5 4 5 7 8 8 6 5 3 2 4 7 6 6 9 11 13 14 14 12 12 13 13 14 14 14 15 15 15 15 17 16 12 9 9
7 8 7 4 3 3 5 7 4 7 9 9 10 10 10 6 4 3 6 8 6 9 11 13 14 14 12 12 12 12 11 12 14 14 15 16 18 17 17 17 14 12 12
8 7 4 2 3 3 14 13 9 10 9 11 11 14 12 10 8 5 6 10 8 11 14 16 16 16 17 16 15 14 15 16 17 18 18 18 18 18 18 17 15 13 12
8 5 2 2 6 7 6 8 8 9 13 10 14 14 14 11 10 7 11 14 14 17 15 16 17 17 16 16 17 17 17 18 19 19 19 19 19 18 20 20 18 18 18
8 6 1 6 2 4 6 8 11 14 15 8 13 7 9 9 12 10 15 15 16 16 15 16 16 16 16 18 18 19 19 20 21 20 21 20 20 20 21 23 21 21 21
8 3 1 2 2 4 6 9 10 9 6 5 5 4 4 4 7 13 15 14 15 15 15 16 16 16 16 17 19 19 18 19 19 19 19 19 20 21 22 20 22 22 21
6 4 6 4 4 5 9 11 9 6 4 6 4 3 5 9 12 13 13 14 14 14 14 14 15 16 17 18 19 19 19 19 19 18 18 19 19 18 19 19 19 20 19
4 5 3 4 7 10 12 11 9 7 6 6 7 7 6 7 9 12 13 14 14 13 14 17 18 18 17 18 17 17 18 17 17 17 17 18 16 15 16 19 18 18 17
4 2 1 3 8 12 10 6 6 8 6 8 8 5 7 9 11 13 14 13 14 15 15 16 16 16 14 15 16 16 18 18 18 16 17 17 16 15 15 16 18 17 17
3 2 5 7 11 12 4 1 1 3 1 6 6 7 10 11 13 15 14 15 16 16 15 14 13 12 12 12 14 17 17 17 18 18 18 18 18 17 16 17 19 18 22
3 4 7 7 9 6 1 2 2 3 3 4 6 9 12 13 13 14 15 15 13 12 11 10 10 10 11 12 13 15 17 19 19 17 17 17 18 16 15 17 18 20 23
6 4 6 7 8 5 1 3 2 2 4 6 8 10 11 13 14 14 12 11 10 9 9 10 10 10 12 13 15 15 16 17 19 19 19 19 19 19 18 17 17 18 20
7 5 6 7 5 3 3 1 1 4 7 9 9 10 10 12 12 12 12 12 11 10 10 11 13 13 13 16 17 16 16 17 18 18 20 19 20 21 20 20 20 19 18
12 8 5 7 5 3 4 3 4 7 8 8 8 10 12 12 12 13 13 12 12 11 11 12 14 14 14 14 15 15 16 16 17 19 18 19 20 22 22 22 21 21 20
13 10 7 7 5 4 6 6 5 4 4 7 8 9 11 12 12 13 13 13 13 13 13 13 15 15 14 14 14 15 16 17 17 18 19 21 22 22 22 22 23 22 21
18 12 8 7 6 6 5 4 4 3 3 6 8 10 12 14 14 15 15 16 15 14 13 13 14 16 16 16 15 16 16 18 18 19 20 21 22 24 24 23 23 23 23
18 13 10 9 8 6 3 3 3 2 4 6 10 12 14 17 19 19 18 17 17 16 14 13 12 12 14 16 17 17 18 19 20 20 21 21 23 23 24 24 23 24 24
18 16 12 10 9 6 3 3 3 3 4 9 10 12 15 18 20 21 20 20 19 18 17 15 14 13 13 13 14 15 16 18 20 20 21 22 23 23 24 23 23 24 25
21 18 14 12 10 8 6 5 4 4 5 7 10 13 17 19 19 21 24 21 20 19 19 18 16 15 14 15 15 14 15 16 17 18 19 21 24 24 24 24 24 23 24
23 21 17 14 11 11 8 8 6 4 4 8 12 15 18 20 19 21 23 22 20 20 20 20 19 18 18 17 18 18 18 18 17 17 18 18 20 23 24 24 24 24 24
Wind_Direction
147 170 186 179 185 190 189 182 176 169 165 153 140 121 80 65 54 52 51 51 52 58 60 61 63 63 58 53 46 50 46 40 33 36 39 38 45 52 59 57 47 41 39
144 181 202 201 204 215 222 219 218 205 199 193 189 147 79 72 65 58 43 39 48 60 62 57 49 49 45 45 34 28 39 34 29 30 34 19 22 25 41 48 51 41 32
141 192 211 214 217 233 249 259 269 274 273 255 230 219 159 136 97 39 29 36 39 43 42 36 15 5 2 1 359 357 4 11 5 1 11 17 17 352 358 19 26 23 15
155 203 213 217 222 241 262 273 260 267 273 258 254 233 221 241 11 15 14 25 43 41 28 14 355 341 335 335 337 338 341 344 340 338 343 341 331 330 331 7 349 352 351
190 202 207 210 211 211 214 244 278 299 300 288 278 267 256 257 323 342 5 17 5 2 1 353 347 343 336 332 334 331 331 329 328 331 327 333 330 315 307 315 313 300 290
209 210 205 195 197 198 254 115 308 304 289 286 278 258 248 258 284 317 344 343 349 342 352 359 348 336 328 325 328 326 321 319 319 321 317 310 307 296 290 302 300 278 275
220 217 204 188 154 148 278 269 288 301 323 315 294 271 259 256 257 313 333 333 336 342 332 327 321 316 314 313 309 300 298 301 306 311 311 308 305 303 296 305 305 273 269
216 226 216 196 186 85 301 328 345 337 335 323 300 293 269 249 250 319 340 318 314 326 326 322 321 313 309 316 310 302 295 292 297 300 302 301 302 299 296 292 288 271 273
217 217 209 175 146 312 301 315 309 314 319 315 304 274 263 245 276 306 314 306 296 310 310 314 310 304 305 307 300 291 290 288 289 294 295 293 290 289 287 286 278 274 267
212 208 186 238 310 326 324 306 296 316 325 308 310 277 248 242 268 278 298 314 312 308 314 318 318 313 307 300 297 293 289 288 289 289 289 287 284 282 282 276 269 270 270
192 167 167 295 268 292 318 303 299 300 313 304 325 4 210 242 262 281 303 312 310 312 323 318 311 307 307 303 297 292 294 295 293 292 292 290 287 280 272 271 272 274 276
171 165 291 231 275 302 318 318 309 308 286 267 331 22 199 262 250 290 300 307 309 318 321 319 316 314 312 305 300 302 303 298 295 294 291 288 283 280 279 277 277 275 276
176 288 303 215 263 303 311 321 300 291 270 259 251 265 258 272 285 291 303 308 314 322 323 320 316 313 308 304 305 307 305 303 300 299 298 296 292 291 285 282 278 276 272
237 313 233 241 290 308 319 314 300 271 264 249 271 285 284 293 307 310 307 312 322 325 325 318 314 312 310 309 311 310 307 305 306 310 309 307 309 301 294 289 283 280 275
269 300 295 296 320 323 318 308 298 280 256 239 282 306 315 317 316 312 319 322 323 325 318 310 306 307 309 308 312 312 313 318 318 317 314 314 309 308 300 293 288 284 274
265 314 335 334 344 330 326 347 345 57 306 280 304 322 319 323 320 319 321 326 325 324 323 317 317 320 321 318 316 314 317 318 316 316 314 311 306 303 298 295 293 290 285
314 306 334 345 345 356 5 109 154 241 290 301 309 313 320 321 320 319 323 320 322 323 317 310 313 318 316 315 317 317 321 320 319 316 313 312 308 304 297 287 284 285 286
320 318 338 341 345 8 340 111 83 317 306 311 312 316 323 326 320 319 325 334 339 340 336 327 328 336 329 327 328 325 322 320 319 321 321 318 314 311 310 300 288 280 285
291 310 321 325 337 339 281 330 31 310 309 309 311 318 325 323 322 330 340 347 352 356 350 337 337 343 341 333 329 328 328 324 321 320 320 319 315 312 309 306 304 297 290
261 295 299 310 322 337 269 290 308 292 297 305 316 321 326 331 337 342 350 353 359 358 352 343 339 339 335 331 328 328 328 327 324 322 320 316 314 311 309 310 309 306 303
255 276 284 303 302 274 276 277 289 283 307 316 320 338 342 342 352 354 357 359 1 2 359 349 338 336 333 329 329 328 329 327 324 321 318 317 315 313 312 314 314 311 305
246 255 266 283 275 273 283 287 273 281 341 346 348 1 8 4 5 4 1 360 358 355 352 344 337 333 333 329 327 327 327 325 322 319 317 315 314 314 314 315 313 310 306
241 241 246 261 268 267 273 272 264 322 4 354 352 360 10 10 12 6 358 355 352 351 349 344 339 332 325 324 324 324 324 320 317 317 315 313 312 313 313 314 312 308 306
239 234 242 254 264 244 250 244 240 289 336 339 339 345 358 358 3 0 357 356 350 347 344 340 336 332 325 317 315 313 309 309 311 313 311 311 312 312 312 313 310 307 305
235 232 235 245 252 234 232 233 266 295 347 347 348 353 1 359 357 352 352 350 346 343 340 336 332 328 325 320 316 309 304 301 301 303 304 308 309 310 312 312 310 308 303
233 229 233 242 247 236 230 238 253 277 341 344 342 344 351 349 344 345 345 345 344 342 338 331 328 326 325 322 318 315 311 308 305 303 303 303 304 308 310 311 310 308 305